| time (UTC) | temp C | wind direction | speed KPH | gust KPH | rain 1hr cm | rain 24hr cm | rain mn cm | humidity % | barometer mb |
| 20260505153105 | 15 | 17 | 6.4 | 9.7 | 0.00 | 0.38 | 0.03 | 68 | 1009.0 |
| 20260505152604 | 15 | 19 | 6.4 | 11.3 | 0.00 | 0.38 | 0.03 | 67 | 1009.0 |
| 20260505152105 | 15 | 26 | 6.4 | 12.9 | 0.00 | 0.38 | 0.03 | 67 | 1009.0 |
| 20260505151605 | 15 | 36 | 8.0 | 14.5 | 0.00 | 0.38 | 0.03 | 68 | 1009.0 |
| 20260505151105 | 15 | 22 | 9.7 | 14.5 | 0.00 | 0.38 | 0.03 | 66 | 1009.0 |
| 20260505150605 | 15 | 5 | 6.4 | 11.3 | 0.00 | 0.38 | 0.03 | 66 | 1009.1 |
| 20260505140605 | 16 | 7 | 9.7 | 16.1 | 0.00 | 0.38 | 0.03 | 66 | 1009.3 |
| 20260505124105 | 15 | 37 | 9.7 | 14.5 | 0.00 | 0.38 | 0.03 | 68 | 1009.5 |
| 20260505123605 | 15 | 27 | 9.7 | 14.5 | 0.00 | 0.38 | 0.03 | 68 | 1009.5 |
| 20260505122105 | 15 | 19 | 9.7 | 19.3 | 0.00 | 0.38 | 0.03 | 69 | 1009.6 |
| 20260505120105 | 15 | 17 | 9.7 | 19.3 | 0.00 | 0.38 | 0.03 | 69 | 1009.5 |
| 20260505114605 | 15 | 29 | 14.5 | 19.3 | 0.00 | 0.38 | 0.03 | 67 | 1009.6 |
| 20260505114104 | 15 | 33 | 9.7 | 25.7 | 0.00 | 0.38 | 0.03 | 67 | 1009.7 |
| 20260505112105 | 15 | 357 | 9.7 | 19.3 | 0.00 | 0.38 | 0.03 | 69 | 1009.8 |
| 20260505111605 | 15 | 7 | 14.5 | 25.7 | 0.00 | 0.38 | 0.03 | 67 | 1009.9 |
| 20260505111105 | 15 | 358 | 11.3 | 22.5 | 0.00 | 0.38 | 0.03 | 67 | 1009.8 |
| 20260505100107 | 13 | 31 | 8.0 | 19.3 | 0.00 | 0.36 | 0.00 | 76 | 1010.1 |
| 20260505095105 | 13 | 13 | 8.0 | 19.3 | 0.00 | 0.36 | 0.00 | 76 | 1010.1 |
| 20260505094604 | 13 | 29 | 12.9 | 20.9 | 0.00 | 0.36 | 0.00 | 76 | 1010.2 |
| 20260505093605 | 13 | 34 | 6.4 | 16.1 | 0.00 | 0.36 | 0.00 | 78 | 1010.2 |
| 20260505091605 | 13 | 26 | 8.0 | 20.9 | 0.00 | 0.36 | 0.00 | 82 | 1010.4 |
| 20260505091105 | 12 | 25 | 8.0 | 16.1 | 0.00 | 0.36 | 0.00 | 81 | 1010.4 |
| 20260505090605 | 12 | 35 | 9.7 | 19.3 | 0.00 | 0.36 | 0.00 | 82 | 1010.4 |
| 20260505090105 | 12 | 2 | 11.3 | 20.9 | 0.00 | 0.36 | 0.00 | 83 | 1010.4 |
| 20260505085604 | 12 | 353 | 6.4 | 19.3 | 0.00 | 0.36 | 0.00 | 83 | 1010.4 |
| 20260505085105 | 12 | 17 | 9.7 | 16.1 | 0.00 | 0.36 | 0.00 | 84 | 1010.4 |
| 20260505084105 | 12 | 22 | 11.3 | 20.9 | 0.00 | 0.36 | 0.00 | 84 | 1010.4 |
| 20260505083605 | 12 | 17 | 8.0 | 16.1 | 0.00 | 0.36 | 0.00 | 85 | 1010.4 |
| 20260505082605 | 12 | 17 | 9.7 | 19.3 | 0.00 | 0.36 | 0.00 | 86 | 1010.4 |
| 20260505082105 | 11 | 26 | 8.0 | 14.5 | 0.00 | 0.36 | 0.00 | 86 | 1010.4 |
| 20260505081104 | 11 | 5 | 11.3 | 19.3 | 0.00 | 0.36 | 0.00 | 87 | 1010.4 |
| 20260505080605 | 11 | 5 | 8.0 | 16.1 | 0.00 | 0.36 | 0.00 | 88 | 1010.4 |
| 20260505074605 | 11 | 33 | 8.0 | 16.1 | 0.00 | 0.36 | 0.00 | 89 | 1010.3 |
| 20260505074105 | 11 | 14 | 11.3 | 19.3 | 0.00 | 0.36 | 0.00 | 90 | 1010.3 |
| 20260505073605 | 11 | 31 | 8.0 | 12.9 | 0.00 | 0.36 | 0.00 | 90 | 1010.3 |
| 20260505073104 | 10 | 30 | 8.0 | 14.5 | 0.00 | 0.36 | 0.00 | 90 | 1010.3 |
| 20260505072605 | 10 | 13 | 8.0 | 19.3 | 0.00 | 0.36 | 0.00 | 91 | 1010.4 |
| 20260505070605 | 10 | 28 | 8.0 | 14.5 | 0.00 | 0.36 | 0.00 | 91 | 1010.5 |
| 20260505065605 | 10 | 18 | 8.0 | 14.5 | 0.00 | 0.36 | 0.00 | 92 | 1010.5 |
| 20260505065104 | 10 | 15 | 8.0 | 16.1 | 0.00 | 0.36 | 0.00 | 92 | 1010.5 |
| 20260505064605 | 10 | 16 | 8.0 | 14.5 | 0.00 | 0.36 | 0.00 | 92 | 1010.5 |
| 20260505064104 | 10 | 5 | 6.4 | 9.7 | 0.00 | 0.36 | 0.00 | 92 | 1010.6 |
| 20260505062604 | 9 | 5 | 3.2 | 8.0 | 0.00 | 0.36 | 0.00 | 92 | 1010.5 |
| 20260505062105 | 9 | 5 | 4.8 | 11.3 | 0.00 | 0.36 | 0.00 | 92 | 1010.5 |
| 20260505061105 | 9 | 5 | 4.8 | 11.3 | 0.00 | 0.36 | 0.00 | 92 | 1010.5 |
| 20260505060605 | 9 | 5 | 4.8 | 11.3 | 0.00 | 0.36 | 0.00 | 92 | 1010.5 |
| 20260505060105 | 9 | 5 | 8.0 | 11.3 | 0.00 | 0.36 | 0.00 | 92 | 1010.5 |
| 20260505055105 | 9 | 5 | 8.0 | 11.3 | 0.00 | 0.36 | 0.00 | 92 | 1010.5 |
| 20260505050105 | 9 | 23 | 4.8 | 9.7 | 0.00 | 0.36 | 0.00 | 92 | 1010.4 |
| 20260505041105 | 10 | 30 | 4.8 | 4.8 | 0.00 | 0.36 | 0.00 | 91 | 1010.7 |
| 20260505034604 | 10 | 30 | 3.2 | 4.8 | 0.00 | 0.36 | 0.00 | 91 | 1010.7 |
| 20260505034105 | 10 | 30 | 3.2 | 4.8 | 0.00 | 0.36 | 0.00 | 91 | 1010.6 |
| 20260505033605 | 10 | 30 | 0.0 | 3.2 | 0.00 | 0.36 | 0.00 | 91 | 1010.7 |
| 20260505033105 | 10 | 30 | 0.0 | 4.8 | 0.00 | 0.36 | 0.00 | 91 | 1010.7 |
| 20260505032605 | 10 | 30 | 4.8 | 8.0 | 0.00 | 0.36 | 0.00 | 91 | 1010.8 |
| 20260505025105 | 10 | 30 | 0.0 | 1.6 | 0.00 | 0.36 | 0.00 | 91 | 1010.7 |
| 20260505022105 | 10 | 30 | 0.0 | 0.0 | 0.00 | 0.36 | 0.00 | 91 | 1010.6 |
| 20260505015604 | 11 | 30 | 0.0 | 0.0 | 0.00 | 0.36 | 0.00 | 90 | 1010.7 |
| 20260505015105 | 11 | 30 | 0.0 | 0.0 | 0.00 | 0.36 | 0.00 | 91 | 1010.8 |
| 20260505014105 | 11 | 30 | 1.6 | 4.8 | 0.00 | 0.36 | 0.00 | 90 | 1011.0 |
| 20260505013105 | 11 | 30 | 1.6 | 4.8 | 0.00 | 0.36 | 0.00 | 90 | 1011.0 |
| 20260505012604 | 11 | 30 | 1.6 | 4.8 | 0.00 | 0.36 | 0.00 | 91 | 1010.9 |
| 20260505011605 | 11 | 30 | 3.2 | 4.8 | 0.00 | 0.36 | 0.00 | 91 | 1011.1 |
| 20260505011105 | 11 | 30 | 3.2 | 4.8 | 0.00 | 0.36 | 0.00 | 90 | 1011.2 |
| 20260505010605 | 11 | 30 | 0.0 | 1.6 | 0.00 | 0.36 | 0.00 | 90 | 1011.2 |
| 20260505010106 | 11 | 30 | 0.0 | 0.0 | 0.00 | 0.36 | 0.00 | 90 | 1011.2 |
| 20260505004605 | 12 | 30 | 4.8 | 8.0 | 0.00 | 0.36 | 0.00 | 90 | 1011.1 |
| 20260505003105 | 12 | 30 | 1.6 | 4.8 | 0.00 | 0.36 | 0.00 | 90 | 1011.4 |
| 20260505002105 | 12 | 30 | 0.0 | 1.6 | 0.00 | 0.36 | 0.00 | 90 | 1011.4 |
| 20260505001605 | 12 | 30 | 1.6 | 4.8 | 0.00 | 0.36 | 0.00 | 90 | 1011.5 |
| 20260505000605 | 12 | 30 | 0.0 | 4.8 | 0.00 | 0.36 | 0.00 | 90 | 1011.5 |
| 20260504235105 | 12 | 30 | 1.6 | 4.8 | 0.00 | 0.36 | 0.00 | 90 | 1011.6 |
| 20260504234605 | 12 | 30 | 3.2 | 8.0 | 0.00 | 0.36 | 0.00 | 90 | 1011.6 |
| 20260504233605 | 12 | 30 | 3.2 | 8.0 | 0.00 | 0.36 | 0.00 | 90 | 1011.6 |
| 20260504233105 | 12 | 30 | 3.2 | 8.0 | 0.00 | 0.36 | 0.00 | 90 | 1011.5 |
| 20260504232606 | 12 | 30 | 3.2 | 8.0 | 0.00 | 0.36 | 0.00 | 90 | 1011.5 |
| 20260504232105 | 12 | 30 | 4.8 | 9.7 | 0.00 | 0.36 | 0.00 | 90 | 1011.5 |
| 20260504231108 | 12 | 30 | 4.8 | 8.0 | 0.00 | 0.36 | 0.00 | 90 | 1011.5 |
| 20260504230605 | 12 | 30 | 3.2 | 4.8 | 0.00 | 0.36 | 0.00 | 90 | 1011.6 |
| 20260504230104 | 12 | 30 | 3.2 | 4.8 | 0.00 | 0.36 | 0.00 | 90 | 1011.6 |
| 20260504223104 | 12 | 30 | 0.0 | 0.0 | 0.00 | 0.36 | 0.36 | 90 | 1011.6 |
| 20260504222605 | 12 | 30 | 0.0 | 1.6 | 0.03 | 0.36 | 0.36 | 90 | 1011.6 |
| 20260504222105 | 12 | 30 | 1.6 | 4.8 | 0.03 | 0.36 | 0.36 | 90 | 1011.6 |
| 20260504221604 | 12 | 30 | 3.2 | 4.8 | 0.03 | 0.36 | 0.36 | 90 | 1011.6 |
| 20260504220605 | 12 | 30 | 3.2 | 4.8 | 0.03 | 0.36 | 0.36 | 90 | 1011.6 |
| 20260504215605 | 12 | 30 | 3.2 | 4.8 | 0.03 | 0.36 | 0.36 | 90 | 1011.7 |
| 20260504214105 | 12 | 30 | 0.0 | 4.8 | 0.03 | 0.36 | 0.36 | 90 | 1011.7 |
| 20260504212605 | 12 | 30 | 3.2 | 4.8 | 0.00 | 0.33 | 0.33 | 90 | 1011.8 |
| 20260504211605 | 12 | 30 | 3.2 | 4.8 | 0.03 | 0.33 | 0.33 | 90 | 1011.9 |
| 20260504211105 | 12 | 30 | 3.2 | 4.8 | 0.03 | 0.33 | 0.33 | 89 | 1011.9 |
| 20260504210605 | 12 | 30 | 3.2 | 4.8 | 0.03 | 0.33 | 0.33 | 89 | 1011.9 |
| 20260504205105 | 13 | 30 | 1.6 | 4.8 | 0.03 | 0.33 | 0.33 | 90 | 1011.8 |
| 20260504204604 | 13 | 30 | 3.2 | 4.8 | 0.03 | 0.33 | 0.33 | 89 | 1011.9 |
| 20260504204105 | 13 | 30 | 3.2 | 4.8 | 0.03 | 0.33 | 0.33 | 89 | 1011.8 |
| 20260504203105 | 13 | 30 | 0.0 | 4.8 | 0.03 | 0.33 | 0.33 | 89 | 1011.8 |
| 20260504202605 | 13 | 30 | 0.0 | 3.2 | 0.03 | 0.33 | 0.33 | 89 | 1011.8 |
| 20260504200105 | 13 | 30 | 0.0 | 0.0 | 0.03 | 0.30 | 0.30 | 89 | 1011.6 |
| 20260504195605 | 13 | 30 | 0.0 | 4.8 | 0.03 | 0.30 | 0.30 | 89 | 1011.6 |
| 20260504195104 | 13 | 30 | 1.6 | 4.8 | 0.03 | 0.30 | 0.30 | 89 | 1011.6 |
| 20260504193605 | 13 | 30 | 0.0 | 4.8 | 0.05 | 0.30 | 0.30 | 89 | 1011.5 |
| 20260504192105 | 13 | 30 | 0.0 | 0.0 | 0.05 | 0.30 | 0.30 | 88 | 1011.4 |
| 20260504190604 | 13 | 30 | 0.0 | 1.6 | 0.08 | 0.30 | 0.30 | 88 | 1011.2 |
| 20260504185605 | 13 | 30 | 0.0 | 0.0 | 0.08 | 0.28 | 0.28 | 88 | 1011.2 |
| 20260504185105 | 14 | 30 | 0.0 | 0.0 | 0.10 | 0.28 | 0.28 | 88 | 1011.1 |
| 20260504184605 | 14 | 30 | 0.0 | 0.0 | 0.13 | 0.28 | 0.28 | 87 | 1011.1 |
| 20260504184105 | 14 | 30 | 0.0 | 0.0 | 0.15 | 0.28 | 0.28 | 88 | 1011.0 |
| 20260504183605 | 14 | 30 | 0.0 | 1.6 | 0.15 | 0.25 | 0.25 | 87 | 1011.1 |
| 20260504180604 | 14 | 30 | 0.0 | 0.0 | 0.18 | 0.23 | 0.23 | 86 | 1011.0 |
| 20260504180105 | 14 | 30 | 0.0 | 0.0 | 0.18 | 0.20 | 0.20 | 86 | 1011.0 |
| 20260504175605 | 14 | 30 | 0.0 | 0.0 | 0.20 | 0.20 | 0.20 | 86 | 1011.0 |
| 20260504174605 | 14 | 30 | 0.0 | 1.6 | 0.15 | 0.15 | 0.15 | 85 | 1010.9 |
| 20260504174106 | 14 | 30 | 1.6 | 4.8 | 0.13 | 0.13 | 0.13 | 85 | 1010.9 |
| 20260504173605 | 15 | 30 | 0.0 | 1.6 | 0.10 | 0.10 | 0.10 | 85 | 1010.9 |
| 20260504173105 | 15 | 30 | 3.2 | 4.8 | 0.08 | 0.08 | 0.08 | 84 | 1010.9 |
| 20260504172605 | 15 | 30 | 0.0 | 1.6 | 0.08 | 0.08 | 0.08 | 84 | 1010.9 |
| 20260504171105 | 15 | 30 | 3.2 | 8.0 | 0.05 | 0.05 | 0.05 | 82 | 1010.8 |
| 20260504170106 | 15 | 30 | 3.2 | 4.8 | 0.03 | 0.03 | 0.03 | 81 | 1010.8 |